[[{"header":{"parameterUnit":"m.s-1","parameterCategory":1,"la1":30.2991,"la2":30.254,"lo1":-89.0895,"lo2":-89.0444,"dy":0.0017,"dx":0.0017,"nx":28,"ny":28,"refTime":"2024-10-18T09:00:00:Z","depth":0,"parameterNumber":2,"parameterNumberName":"U-component_of_WINDS"},"data":[0,0,0,0,0,0,0,0,0,0,0,0,0,0,0,0,0,0,0,0,0,0,0,0,0,0,0,0,0,0,0,0,0,0,0,0,0,0,0,0,0,0,0,0,0,0,0,0,0,0,0,0,0,0,0,0,0,0,-3.7341,-3.7343,0,-3.7449,-3.745,-3.7451,-3.7327,-3.7323,-3.7318,-3.7314,-3.7427,-3.7434,-3.7441,0,0,0,0,0,0,0,0,0,0,0,0,0,-3.7032,-3.7038,-3.7341,-3.7343,-3.7344,-3.7449,-3.745,-3.7452,-3.7328,-3.7322,-3.7317,-3.7311,-3.7424,-3.7433,-3.7442,0,0,0,0,0,0,0,0,0,0,0,0,0,-3.7156,-3.704,-3.7341,-3.7295,-3.7292,-3.7448,-3.745,-3.7452,-3.7329,-3.7322,-3.7315,-3.7309,-3.7422,-3.7432,-3.7443,-3.7651,0,0,-3.7477,-3.7482,0,0,0,0,0,0,0,0,-3.7149,-3.7167,-3.73,-3.7298,-3.7295,-3.7367,-3.7382,-3.7519,-3.7331,-3.7315,-3.7313,-3.7305,-3.7413,-3.7424,-3.746,-3.7657,-3.7661,-3.7478,-3.7485,-3.7489,-3.7492,0,0,0,0,0,0,0,-3.714,-3.7162,-3.7384,-3.7302,-3.7299,-3.727,-3.728,-3.7408,-3.7402,-3.7316,-3.7307,-3.7322,-3.741,-3.745,-3.7462,-3.7663,-3.7478,-3.7487,-3.7494,-3.7499,-3.8038,-3.8045,0,0,0,0,0,0,-3.7137,-3.7156,-3.738,-3.7387,-3.7203,-3.7281,-3.7292,-3.7351,-3.74,-3.7401,-3.7327,-3.7315,-3.7434,-3.7449,-3.7465,-3.7714,-3.7489,-3.75,-3.7506,-3.803,-3.804,-3.8048,0,0,0,0,0,0,-3.7131,-3.7158,-3.7376,-3.7269,-3.7294,-3.7294,-3.7361,-3.7357,-3.7396,-3.7409,-3.7408,-3.7369,-3.7429,-3.745,-3.7606,-3.7716,-3.7505,-3.7515,-3.8021,-3.8033,-3.8044,-3.8213,0,0,0,0,0,0,-3.7122,-3.7156,-3.7235,-3.7272,-3.7301,-3.7515,-3.7368,-3.7364,-3.7415,-3.7401,-3.7447,-3.7448,-3.7425,-3.759,-3.7617,-3.7728,-3.7523,-3.8011,-3.8027,-3.804,-3.8197,-3.8228,-3.8255,0,0,0,0,0,-3.7112,-3.7278,-3.724,-3.7267,-3.7399,-3.7522,-3.7538,-3.7508,-3.7425,-3.7504,-3.7512,-3.7447,-3.7699,-3.7607,-3.7637,-3.7752,-3.8004,-3.8022,-3.8039,-3.8184,-3.8222,-3.8254,0,0,0,0,0,0,-3.7256,-3.7282,-3.724,-3.7423,-3.7471,-3.75,-3.76,-3.7549,-3.7622,-3.7605,-3.7565,-3.7577,-3.7744,-3.7763,-3.766,-3.7957,-3.7838,-3.7862,-3.7939,-3.7975,-3.8003,-3.7997,-3.7532,0,0,0,0,0,-3.7308,-3.7405,-3.7423,-3.7584,-3.761,-3.7601,-3.7653,-3.7626,-3.7674,-3.7694,-3.7713,-3.7764,-3.7854,-3.7915,-3.7999,-3.8198,-3.8208,-3.8292,-3.8321,-3.8345,-3.8367,-3.8476,-3.8514,-3.8105,-3.8105,-3.8104,0,0,-3.7419,-3.7446,-3.751,-3.7613,-3.7647,-3.775,-3.7619,-3.7732,-3.7809,-3.7711,-3.7861,-3.7877,-3.793,-3.811,-3.819,-3.8131,-3.8482,-3.8367,-3.8386,-3.8395,-3.8498,-3.8537,-3.8571,-3.8117,-3.8115,-3.8113,0,0,-3.7674,-3.7703,-3.784,-3.7877,-3.7929,-3.7922,-3.7956,-3.7993,-3.8,-3.8149,-3.8079,-3.8169,-3.8325,-3.8367,-3.8409,-3.868,-3.8623,-3.8708,-3.8861,-3.8967,-3.9,-3.9028,-3.9127,-3.9163,-3.8729,-3.873,-3.873,0,-3.7806,-3.7956,-3.7918,-3.8037,-3.8086,-3.8001,-3.8141,-3.8178,-3.8257,-3.8293,-3.8225,-3.8421,-3.845,-3.864,-3.8706,-3.8741,-3.878,-3.8704,-3.8998,-3.9026,-3.9052,-3.9146,-3.9184,-3.874,-3.8739,-3.8738,-3.8737,0,-3.8117,-3.8223,-3.8327,-3.8405,-3.8464,-3.8594,-3.8576,-3.8641,-3.8608,-3.8609,-3.8763,-3.8795,-3.8885,-3.8927,-3.8896,-3.9113,-3.9075,-3.9004,-3.8884,-3.9102,-3.919,-3.9226,-3.8754,-3.8751,-3.8748,-3.8745,0,0,-3.8468,-3.8521,-3.8561,-3.8595,-3.8647,-3.8729,-3.8854,-3.8941,-3.8999,-3.9055,-3.9162,-3.9296,-3.923,-3.9277,-3.925,-3.9343,-3.9559,-3.926,-3.9261,-3.9317,-3.9803,-3.9859,-3.9902,-3.952,-3.9527,-3.9532,-3.98,0,-3.8725,-3.8943,-3.8912,-3.9121,-3.922,-3.914,-3.925,-3.9294,-3.9298,-3.9383,-3.9387,-3.9484,-3.9388,-3.9417,-3.9505,-3.9514,-3.9657,-3.9494,-3.9621,-3.9626,-3.9614,-3.9947,-4.0007,-4.0257,-3.9834,-3.9839,-3.9843,0,-3.9056,-3.9124,-3.9344,-3.9381,-3.9421,-3.952,-3.9598,-3.9679,-3.9728,-3.9725,-3.9778,-3.9734,-3.9861,-3.9737,-3.9913,-3.9803,-3.9853,-3.9866,-3.9874,-3.9888,-3.975,-3.9973,-4.0336,-4.0375,-3.9897,-3.9893,-3.9889,0,-3.9293,-3.944,-3.959,-3.9622,-3.9668,-3.9741,-3.9763,-3.9805,-3.986,-3.9928,-3.9964,-4.0046,-4.0093,-4.0158,-4.0138,-4.0049,-4.032,-4.0193,-4.0322,-4.0323,-4.0385,-4.0382,-4.0766,-4.0413,-4.0412,-4.0411,-4.0411,0,-3.9586,-3.9725,-3.9698,-3.9791,-3.9944,-3.9907,-4.006,-4.0073,-4.0111,-4.0206,-4.0142,-4.0233,-4.0199,-4.0289,-4.0274,-4.0423,-4.0444,-4.0446,-4.0441,-4.0454,-4.0454,-4.0488,-4.0472,-4.0421,-4.0419,-4.0417,-4.0415,0,-3.9879,-3.9866,-4.0026,-4.0056,-4.0067,-4.0179,-4.0206,-4.0294,-4.0292,-4.0414,-4.044,-4.0438,-4.054,-4.0526,-4.064,-4.0629,-4.0817,-4.0789,-4.0801,-4.0796,-4.0927,-4.0916,-4.1348,-4.1404,-4.1012,-4.1015,-4.1019,0,-4.0068,-4.0173,-4.0215,-4.0274,-4.0302,-4.0397,-4.0453,-4.042,-4.0481,-4.0545,-4.0626,-4.0722,-4.0798,-4.0965,-4.0974,-4.1061,-4.1037,-4.1182,-4.105,-4.106,-4.1043,-4.1039,-4.105,-4.121,-4.1214,-4.1218,-4.1221,0,-4.0407,-4.0396,-4.0477,-4.0559,-4.0626,-4.0688,-4.0744,-4.0796,-4.0769,-4.0841,-4.0944,-4.1002,-4.1118,-4.1216,-4.1297,-4.1322,-4.1269,-4.1262,-4.1297,-4.1313,-4.1317,-4.132,-4.0876,-4.1253,-4.125,-4.1247,-4.1246,-4.1244,-4.0656,-4.0746,-4.079,-4.0884,-4.0922,-4.0976,-4.1061,-4.1069,-4.1154,-4.1246,-4.1221,-4.1339,-4.1386,-4.149,-4.1524,-4.1616,-4.1563,-4.1613,-4.1627,-4.164,-4.1658,-4.1299,-4.1631,-4.163,-4.1629,-4.1628,-4.1627,0,-4.0994,-4.1018,-4.1105,-4.1185,-4.1259,-4.12,-4.1258,-4.1325,-4.143,-4.1477,-4.1553,-4.1672,-4.1766,-4.1783,-4.1873,-4.1944,-4.1922,-4.1969,-4.1965,-4.1972,-4.1698,-4.1661,-4.1986,-4.1985,-4.1985,-4.1985,-4.1985,-4.1985,-4.1179,-4.1329,-4.1323,-4.1491,-4.1514,-4.1628,-4.1668,-4.1717,-4.1755,-4.1892,-4.1969,-4.1979,-4.2015,-4.2107,-4.2191,-4.2193,-4.2231,-4.2289,-4.2283,-4.2027,-4.1991,-4.1957,-4.1922,-4.2296,-4.2297,-4.2549,-4.2551,-4.2553]},{"header":{"parameterUnit":"m.s-1","parameterCategory":1,"la1":30.2991,"la2":30.254,"lo1":-89.0895,"lo2":-89.0444,"dy":0.0017,"dx":0.0017,"nx":28,"ny":28,"refTime":"2024-10-18T09:00:00:Z","depth":0,"parameterNumber":3,"parameterNumberName":"V-component_of_WINDS"},"data":[0,0,0,0,0,0,0,0,0,0,0,0,0,0,0,0,0,0,0,0,0,0,0,0,0,0,0,0,0,0,0,0,0,0,0,0,0,0,0,0,0,0,0,0,0,0,0,0,0,0,0,0,0,0,0,0,0,0,-4.5045,-4.5044,0,-4.5039,-4.5038,-4.5038,-4.4964,-4.4962,-4.496,-4.4958,-4.4952,-4.4954,-4.4955,0,0,0,0,0,0,0,0,0,0,0,0,0,-4.499,-4.4992,-4.5045,-4.5044,-4.5044,-4.5039,-4.5038,-4.5038,-4.4964,-4.4962,-4.496,-4.4958,-4.4952,-4.4954,-4.4955,0,0,0,0,0,0,0,0,0,0,0,0,0,-4.5002,-4.4992,-4.5045,-4.5007,-4.5003,-4.5039,-4.5038,-4.5038,-4.4965,-4.4962,-4.4959,-4.4957,-4.4951,-4.4953,-4.4956,-4.5027,0,0,-4.4963,-4.4964,0,0,0,0,0,0,0,0,-4.5001,-4.5004,-4.5012,-4.5009,-4.5006,-4.4999,-4.5017,-4.5034,-4.4965,-4.4979,-4.4958,-4.4955,-4.497,-4.4971,-4.4976,-4.5026,-4.5026,-4.4963,-4.4965,-4.4966,-4.4966,0,0,0,0,0,0,0,-4.5001,-4.5004,-4.5042,-4.5013,-4.5008,-4.4989,-4.4988,-4.502,-4.4991,-4.4978,-4.4973,-4.4973,-4.4968,-4.4974,-4.4975,-4.5026,-4.4963,-4.4965,-4.4967,-4.4968,-4.5132,-4.5134,0,0,0,0,0,0,-4.5005,-4.5004,-4.5042,-4.5042,-4.4997,-4.4993,-4.4991,-4.5004,-4.499,-4.4985,-4.4975,-4.4969,-4.4971,-4.4972,-4.4975,-4.5054,-4.4966,-4.4968,-4.4969,-4.5129,-4.5132,-4.5135,0,0,0,0,0,0,-4.5004,-4.5009,-4.5043,-4.5021,-4.5024,-4.4997,-4.5012,-4.5005,-4.5011,-4.4988,-4.4982,-4.4987,-4.4969,-4.4971,-4.5014,-4.5053,-4.4969,-4.4971,-4.5125,-4.513,-4.5134,-4.5216,0,0,0,0,0,0,-4.5003,-4.501,-4.5037,-4.5023,-4.5026,-4.5082,-4.5014,-4.5007,-4.5016,-4.5008,-4.4997,-4.4993,-4.4967,-4.501,-4.5016,-4.5055,-4.4973,-4.5122,-4.5127,-4.5132,-4.521,-4.5223,-4.5234,0,0,0,0,0,-4.5001,-4.5061,-4.5039,-4.5044,-4.5059,-4.5085,-4.5087,-4.5055,-4.5019,-4.5046,-4.503,-4.4993,-4.5049,-4.5015,-4.5021,-4.5061,-4.5119,-4.5126,-4.5132,-4.5204,-4.522,-4.5234,0,0,0,0,0,0,-4.5081,-4.5058,-4.5033,-4.509,-4.509,-4.5072,-4.5105,-4.5074,-4.5084,-4.5076,-4.5037,-4.5035,-4.5083,-4.5077,-4.504,-4.5128,-4.5077,-4.5085,-4.513,-4.5145,-4.5157,-4.5156,-4.4975,0,0,0,0,0,-4.5105,-4.5128,-4.5107,-4.5159,-4.516,-4.5133,-4.5143,-4.5119,-4.5117,-4.5117,-4.5105,-4.5104,-4.5121,-4.5133,-4.5147,-4.5209,-4.5204,-4.5239,-4.5251,-4.5261,-4.5268,-4.5297,-4.5312,-4.5157,-4.5157,-4.5157,0,0,-4.5155,-4.5146,-4.5163,-4.5175,-4.5172,-4.5196,-4.5133,-4.5162,-4.5179,-4.5121,-4.5159,-4.5151,-4.5148,-4.5199,-4.5221,-4.5195,-4.531,-4.527,-4.5278,-4.5279,-4.5306,-4.532,-4.5333,-4.5162,-4.5161,-4.516,0,0,-4.5258,-4.5254,-4.5296,-4.5294,-4.5289,-4.527,-4.5281,-4.5267,-4.5259,-4.5297,-4.5253,-4.5273,-4.5304,-4.5302,-4.5306,-4.5406,-4.5371,-4.5412,-4.5475,-4.5504,-4.5516,-4.5527,-4.556,-4.5573,-4.542,-4.542,-4.542,0,-4.5321,-4.5355,-4.5321,-4.5351,-4.5357,-4.5305,-4.5346,-4.5346,-4.5347,-4.5352,-4.5323,-4.5358,-4.5353,-4.5402,-4.5426,-4.5432,-4.544,-4.5412,-4.5517,-4.5527,-4.5537,-4.5568,-4.5581,-4.5424,-4.5424,-4.5423,-4.5423,0,-4.5431,-4.5455,-4.5489,-4.549,-4.55,-4.5536,-4.5506,-4.552,-4.5495,-4.5479,-4.5517,-4.5508,-4.5519,-4.5529,-4.5506,-4.5575,-4.5558,-4.5524,-4.5472,-4.5557,-4.5585,-4.5597,-4.5431,-4.543,-4.5428,-4.5427,0,0,-4.5583,-4.5564,-4.5577,-4.5575,-4.5566,-4.5584,-4.5617,-4.5627,-4.5638,-4.5641,-4.5666,-4.5692,-4.566,-4.5664,-4.564,-4.5666,-4.5742,-4.5627,-4.5627,-4.5647,-4.5815,-4.5839,-4.5853,-4.572,-4.5722,-4.5724,-4.5814,0,-4.568,-4.5734,-4.5704,-4.5762,-4.5782,-4.5733,-4.5761,-4.5758,-4.5744,-4.5759,-4.5743,-4.5762,-4.5719,-4.572,-4.5744,-4.5728,-4.5775,-4.5721,-4.5741,-4.5742,-4.5741,-4.5868,-4.5894,-4.598,-4.5825,-4.5827,-4.5829,0,-4.58,-4.5806,-4.5866,-4.5851,-4.5858,-4.5884,-4.5889,-4.5905,-4.59,-4.5888,-4.5892,-4.586,-4.589,-4.584,-4.588,-4.5844,-4.585,-4.5844,-4.5846,-4.5845,-4.5789,-4.5868,-4.6006,-4.6018,-4.5846,-4.5845,-4.5844,0,-4.5902,-4.5926,-4.5963,-4.5964,-4.5948,-4.5967,-4.5961,-4.5953,-4.596,-4.5965,-4.5969,-4.5978,-4.5982,-4.599,-4.5961,-4.5928,-4.6003,-4.5952,-4.5992,-4.5993,-4.6009,-4.6008,-4.6147,-4.6018,-4.6017,-4.6017,-4.6017,0,-4.6012,-4.605,-4.6008,-4.6032,-4.6072,-4.6036,-4.6077,-4.6066,-4.606,-4.6079,-4.6038,-4.6057,-4.6019,-4.6035,-4.6013,-4.6047,-4.605,-4.604,-4.6033,-4.6042,-4.6043,-4.6044,-4.6036,-4.6021,-4.602,-4.6019,-4.6019,0,-4.6132,-4.6106,-4.6143,-4.6124,-4.612,-4.6151,-4.6134,-4.6154,-4.6137,-4.6162,-4.6166,-4.6139,-4.6154,-4.6127,-4.6139,-4.6124,-4.6172,-4.6157,-4.6173,-4.6168,-4.6209,-4.6204,-4.6352,-4.6368,-4.6231,-4.6232,-4.6234,0,-4.6202,-4.623,-4.6213,-4.6223,-4.6219,-4.6236,-4.6242,-4.6208,-4.6216,-4.6212,-4.6232,-4.6244,-4.6251,-4.6278,-4.6259,-4.6268,-4.6252,-4.6303,-4.6253,-4.626,-4.6249,-4.6247,-4.6248,-4.6312,-4.6314,-4.6316,-4.6317,0,-4.6329,-4.6314,-4.6325,-4.6331,-4.6339,-4.6343,-4.6343,-4.6353,-4.6317,-4.6328,-4.6343,-4.6349,-4.6361,-4.6372,-4.6376,-4.6369,-4.6337,-4.6333,-4.6342,-4.635,-4.6357,-4.6351,-4.6198,-4.6329,-4.6328,-4.6327,-4.6326,-4.6326,-4.6424,-4.6445,-4.6436,-4.6449,-4.6445,-4.6446,-4.6463,-4.6447,-4.6459,-4.6465,-4.6444,-4.6463,-4.6456,-4.6458,-4.6455,-4.6468,-4.6446,-4.646,-4.6463,-4.6466,-4.6472,-4.6357,-4.647,-4.6469,-4.6469,-4.6468,-4.6468,0,-4.6547,-4.6538,-4.655,-4.6551,-4.656,-4.6529,-4.6527,-4.6537,-4.6553,-4.6549,-4.6557,-4.6573,-4.6584,-4.6565,-4.6573,-4.6587,-4.6572,-4.659,-4.6587,-4.6586,-4.6493,-4.6483,-4.6602,-4.6602,-4.6602,-4.6602,-4.6602,-4.6602,-4.6611,-4.6644,-4.6628,-4.6658,-4.6649,-4.6667,-4.6668,-4.6668,-4.6664,-4.6683,-4.6692,-4.6679,-4.6669,-4.6675,-4.6683,-4.6677,-4.6681,-4.6704,-4.6693,-4.6606,-4.6593,-4.658,-4.657,-4.6705,-4.6706,-4.6783,-4.6784,-4.6785]}]]